Temp_Advection
nan nan nan nan nan nan nan nan nan nan nan nan nan nan nan nan nan nan nan nan nan nan nan nan nan nan nan nan nan nan nan nan nan nan nan nan nan nan nan nan nan nan nan nan nan nan nan nan nan nan nan nan nan nan nan nan nan nan nan nan nan nan nan nan nan nan nan nan nan nan nan nan nan nan
nan 0 -0 -0 0 0 0 0 -0 -0 -0 0 0 0 0 0 0 -0 -0 -0 -0 -0 -0 -0 -0 -0 0 0 -0 0 0 -0 -0 0 -0 -0 -0 -0 -0 -0 -0 -0 -0 -0 -0 -0 -0 -0 -0 -0 -0 -0 -0 -0 -0 -0 -0 -0 -0 -0 -0 -0 -0 -0 0 0 0 -0 -0 -0 0 -0 -0 nan
nan 0 -0 -0 0 0 0 0 0 -0 -0 -0 0 0 0 0 0 0 -0 -0 -0 -0 -0 0 -0 -0 -0 -0 0 -0 -0 -0 0 0 -0 -0 -0 -0 -0 0 0 -0 0 0 -0 -0 -0 -0 -0 -0 -0 -0 -0 -0 -0 -0 -0 -0 -0 -0 -0 -0 -0 -0 -0 0 0 0 0 -0 -0 -0 -0 nan
nan 0 0 -0 -0 -0 0 0 0 0 -0 -0 0 0 0 0 0 0 0 -0 -0 -0 -0 -0 0 0 -0 -0 -0 -0 0 -0 -0 -0 -0 -0 -0 -0 -0 -0 0 -0 0 0 0 0 0 0 0 0 0 -0 -0 -0 -0 -0 -0 -0 -0 -0 -0 -0 -0 -0 -0 -0 -0 0 0 0 0 0 -0 nan
nan 0 0 0 0 -0 -0 0 0 0 0 -0 -0 0 0 0 0 0 0 -0 -0 0 -0 -0 0 0 -0 -0 -0 0 0 -0 -0 -0 -0 -0 -0 -0 -0 -1 -0 -0 -0 -0 -0 -0 0 0 0 0 0 0 0 0 0 0 0 0 0 0 -0 -0 -0 -0 -0 -0 -0 -0 -0 0 0 0 0 nan
nan -0 0 0 0 0 -0 -0 0 0 0 0 -0 0 0 -0 0 0 0 -0 -0 0 -0 -0 -0 -0 -0 -0 -0 -0 -0 -0 -0 -0 -0 -0 -0 -0 -0 -0 -1 -0 -0 -0 -0 -0 -0 -0 -0 -0 -0 -0 0 -0 -0 0 0 0 0 0 0 0 0 0 -0 -0 -0 -0 -0 -0 0 0 0 nan
nan 0 0 0 0 0 0 0 0 0 0 0 0 0 0 0 0 0 0 0 -0 -0 -0 -0 -0 -0 -0 -0 0 -0 -0 -0 -0 0 -0 -0 -0 -0 0 -0 -1 -1 -0 -0 -0 -0 -0 -0 -0 -0 -0 -0 -0 -0 -0 -0 -0 -0 -0 0 0 0 0 0 0 -0 -0 -0 0 0 0 0 -0 nan
nan 0 0 0 0 0 0 0 0 0 0 0 0 0 0 0 0 0 0 0 -0 -0 -0 -0 -0 0 -0 -0 0 0 -0 -0 0 0 -0 -0 -0 -0 0 0 -0 -0 -0 -0 -0 -0 -0 -0 -0 -1 -0 -0 -0 -0 -0 -0 -0 -0 -0 -0 -0 -0 -0 0 0 0 0 -0 0 0 0 0 -0 nan
nan 0 0 0 0 0 0 0 0 0 0 0 0 0 -0 -0 0 0 0 0 0 -0 -0 0 0 0 0 -0 -0 0 0 0 0 0 0 -0 -0 -1 -0 0 -0 -0 -0 -0 -0 0 -0 -0 -0 -0 -0 -0 -0 -0 -0 -0 -0 -0 -0 -0 -0 -0 -0 -0 -0 -0 0 0 0 0 0 0 0 nan
nan 0 0 -0 -0 -0 0 0 0 -0 0 0 0 0 0 0 0 0 0 0 0 0 0 0 0 0 0 0 -0 -0 -0 0 0 0 0 0 0 -0 -1 -1 -1 -1 -0 -0 -1 -0 -0 -0 -0 -0 -0 -0 -0 -0 -0 -1 -0 -0 -0 -0 -0 -0 -0 -0 -0 -0 -0 0 0 0 0 0 0 nan
nan -0 -0 -0 -0 -0 0 0 -0 -0 0 0 0 0 0 0 0 0 0 0 0 0 0 0 0 0 0 0 0 -0 -0 -0 0 0 -0 -0 0 0 -0 -1 -1 -2 -1 -0 -1 -2 -1 -1 -0 -0 -1 -0 0 -0 -0 -1 -0 -0 -1 -1 -0 -0 -0 -0 -0 -0 -0 -0 0 0 1 0 0 nan
nan 0 -0 0 0 -0 0 -0 -0 0 -0 0 0 0 0 0 0 0 0 -0 -0 0 0 0 0 0 0 0 0 0 -0 -0 -0 -0 -0 -0 -0 0 -0 0 -0 -1 -2 -1 0 -1 -2 -2 -1 -1 -2 -2 -1 0 -0 -1 -0 -0 -1 -1 -1 -1 -0 -0 -0 -0 -0 -0 -0 0 0 1 0 nan
nan -0 -0 0 -0 -0 -0 0 0 0 0 0 0 0 0 0 0 0 -0 -0 -0 -0 0 0 0 -0 0 0 0 0 0 -0 -0 -0 -1 -1 -0 -0 -0 -0 0 -0 -2 -2 0 0 -1 -2 -2 -0 -1 -3 -2 -0 -0 -1 -1 -0 -0 -1 -1 -1 -1 -0 -0 0 -0 -0 -0 -0 -0 1 1 nan
nan -0 -0 -0 -0 -0 0 0 0 0 0 0 0 0 0 0 0 0 -0 -0 -0 0 -0 0 0 0 -0 0 1 0 0 -0 -0 -0 -1 -1 -0 -0 -1 -0 0 0 -1 -2 -1 0 -0 -1 -2 -0 -0 -2 -2 -1 -0 -1 -1 -1 -1 -1 -1 -1 -1 -1 -1 -0 0 0 -0 -0 -1 -0 0 nan
nan 0 0 -0 -0 -0 0 0 0 0 0 0 0 1 0 0 0 0 -0 -0 0 0 -0 0 1 0 0 0 0 0 0 0 -0 -0 -0 -1 -0 -0 -1 -1 -0 0 -1 -2 -1 0 1 -0 -2 -1 -1 -2 -2 -1 -0 0 -0 -1 -1 -1 -1 -1 -1 -1 -1 -1 -0 0 0 -0 -1 -1 -0 nan
nan -0 -0 -0 -0 -0 -0 -0 -0 0 0 0 0 0 0 0 0 0 0 0 0 0 -0 0 0 0 0 0 0 0 0 0 0 0 -0 -0 -0 -0 -1 -1 -0 -0 -1 -2 -2 -0 1 1 -1 -1 -1 -2 -3 -3 -1 -0 0 -0 -1 -1 -0 -0 -1 -1 -1 -1 -1 -0 0 0 -0 -0 -0 nan
nan -0 -0 -0 -0 -0 -0 0 0 0 0 0 0 0 0 1 1 1 0 0 0 0 0 0 0 0 0 0 0 0 0 0 0 0 -0 -0 0 0 -0 -1 -1 -0 -1 -2 -3 -2 1 2 0 -1 -1 -1 -3 -3 -3 -1 -0 0 -0 -1 -1 -0 -0 -1 -1 -1 -1 -0 0 0 0 -0 -0 nan
nan -0 0 -0 -0 -0 -0 0 0 0 0 0 1 0 1 1 1 1 0 0 0 0 1 1 0 0 0 0 0 0 0 0 0 0 0 -0 0 0 -0 -1 -1 -0 -0 -1 -3 -4 -2 1 0 -1 -1 -1 -2 -3 -3 -3 -1 -0 0 -0 -1 -0 0 0 -0 -1 -1 -1 -0 0 0 0 -0 nan
nan 0 0 0 -0 -0 0 0 0 0 0 0 1 0 0 1 1 1 1 1 1 0 0 1 0 0 0 0 0 0 0 0 -0 0 0 -0 -0 -0 -1 -1 -0 -0 0 0 -1 -3 -3 -1 -0 -1 -1 -1 -1 -2 -3 -3 -3 -2 -0 -0 -0 -1 -0 0 1 0 -1 -1 -1 -0 0 0 0 nan
nan 0 0 0 0 0 0 -0 0 0 0 0 0 0 0 0 1 1 1 1 0 0 0 0 0 0 0 0 0 0 0 0 0 0 0 0 -0 -0 -1 -1 -0 -0 0 1 1 -1 -1 -1 -0 -0 -1 -1 -1 -1 -2 -2 -3 -3 -2 -1 -1 -1 -1 0 1 1 1 -0 -1 -1 -1 -0 -0 nan
nan 0 0 0 0 0 0 0 0 0 0 0 0 0 0 0 0 0 0 0 0 0 0 0 0 0 0 0 0 0 0 0 0 0 1 1 0 -0 -1 -1 -1 -0 0 1 1 0 -0 -0 -0 -0 -0 -0 -1 -1 -1 -0 -1 -3 -3 -3 -2 -1 -1 -0 0 1 1 1 -0 -1 -1 -1 -1 nan
nan 0 0 0 0 0 -0 -0 -0 0 0 0 0 0 0 0 0 0 0 0 0 0 0 0 0 0 0 0 0 0 -0 0 0 0 1 1 1 0 -1 -1 -1 -0 -0 0 1 0 -0 -0 -0 -1 -0 -0 -0 -0 0 0 0 -0 -1 -1 -1 -1 -1 -1 -0 0 0 0 0 0 -0 -1 -1 nan
nan 0 0 0 0 -0 -0 -0 -0 0 0 0 0 0 0 0 -0 -0 0 0 0 0 0 0 0 0 0 0 -0 -0 -1 -1 -0 -0 0 1 2 0 -1 -1 -1 -1 -1 0 1 0 -0 -0 -0 -1 -1 -1 -1 -0 0 0 1 1 0 0 -0 0 0 0 -0 -1 -1 -0 0 1 1 0 -0 nan
nan 0 0 0 -0 -0 -0 -0 -0 -0 0 0 0 0 0 0 -0 -0 0 0 0 0 -0 -0 -0 -0 -0 -0 -1 -1 -1 -1 -1 -1 -1 -0 1 1 -0 -1 -1 -1 -1 0 1 0 -0 -0 -1 -1 -1 -1 -1 -1 -0 0 0 0 0 1 1 1 1 1 0 -0 -0 -0 0 1 0 0 0 nan
nan 0 0 0 -0 -0 -0 -0 -0 -0 0 0 0 0 0 0 0 0 0 0 0 0 -0 -0 -0 -0 -0 -0 -0 0 -0 -0 -1 -1 -1 -1 0 0 -0 -1 -1 -1 -1 0 1 0 -1 -1 -1 -1 -0 -1 -2 -1 -1 -1 -0 -0 -0 0 1 1 1 1 0 -0 -0 -0 0 0 0 0 1 nan
nan -0 -0 0 -0 -0 -0 -0 -0 -0 -0 0 0 0 0 0 0 0 0 -0 0 0 0 -0 -0 -0 0 0 0 0 0 0 0 0 -0 1 1 0 -0 -0 -1 -1 -0 0 1 -0 -1 -1 -1 -0 -0 -1 -1 -2 -2 -1 -1 -1 -1 -0 0 1 1 1 0 -0 -1 -0 -0 0 0 1 1 nan
nan -0 0 0 -0 -0 -0 -0 -0 -0 0 0 0 0 0 0 0 0 0 0 0 0 0 0 0 0 0 0 0 0 0 0 0 0 1 2 1 -0 -1 -0 -0 -0 -0 0 0 -0 -1 -1 -1 -0 -0 -0 -0 -1 -1 -2 -1 -1 -1 -0 0 0 0 1 0 -0 -1 -1 -1 -0 0 0 0 nan
nan 0 0 0 -0 -0 -0 -0 0 0 0 0 0 0 0 0 0 0 0 0 -0 -0 0 0 0 0 0 0 -0 -0 -0 -1 0 1 1 1 0 -0 -0 0 0 -0 -0 -0 -0 0 -0 -0 -0 -0 -0 -0 -0 -0 -1 -1 -1 -1 -1 -1 -0 -0 -0 -0 -0 -0 -0 -1 -1 -1 -0 -0 0 nan
nan 0 0 0 -0 -0 -0 -0 0 0 0 0 0 0 0 0 0 0 0 0 -0 0 0 -0 -0 -0 0 -0 -1 -1 -0 -1 -0 0 0 -0 -0 0 0 0 0 -0 -0 -0 0 0 0 -0 -0 -0 -0 -0 -0 -0 -1 -1 -1 -1 -1 -0 -0 -0 -0 -0 -0 -0 -0 -0 -1 -1 -0 -0 -0 nan
nan 0 0 0 0 0 0 0 0 0 0 0 0 0 0 0 0 0 0 0 0 0 0 0 -0 -0 0 0 -0 -0 0 -0 -1 -0 -0 -0 -0 -0 -0 -0 -0 -0 0 0 0 0 0 -0 -0 -0 -0 -0 -0 -0 -0 -0 -0 -0 -0 -0 -0 -0 -0 -0 -0 -0 -0 -1 -1 -1 -0 -0 -0 nan
nan 0 0 0 0 0 0 0 0 0 0 0 0 -0 -0 -0 0 0 0 0 0 0 0 0 -0 -0 0 0 -0 0 0 0 0 0 0 0 -0 -0 -0 -0 -0 -0 -0 0 0 0 0 0 0 -0 -0 -0 -0 -0 -0 -0 -0 -0 -0 -0 -0 -0 -0 -0 -0 0 -0 -0 -1 -1 -1 -1 -0 nan
nan 0 0 0 0 0 0 0 0 -0 -0 0 0 -0 -0 -0 -0 -0 -0 -0 -0 -0 -0 -0 -0 -0 -0 -0 -0 0 0 0 0 0 0 0 0 0 -0 -0 -0 -0 -0 -0 0 0 0 0 0 0 0 -0 -0 -0 -0 -0 -0 -0 -0 -0 -0 -0 -0 -0 -0 -0 -0 -0 -1 -1 -1 -1 -0 nan
nan 0 0 0 0 0 0 0 0 -0 -0 -0 -0 -0 0 0 -0 -0 -0 -0 -0 -0 -0 0 0 -0 -0 -0 -0 -0 -0 -0 0 0 0 0 0 0 -0 -0 -0 -0 -0 -0 0 0 0 0 0 0 0 0 -0 -0 -0 -0 -0 -0 -0 -0 -0 0 -0 -0 -0 -0 -0 -0 -0 -1 -1 -1 -0 nan
nan 0 0 0 0 0 0 0 0 -0 -0 -0 -0 -0 -0 0 -0 -0 -0 0 0 -0 -0 -0 0 -0 -0 -0 0 -0 -0 -0 -0 0 0 -0 -0 -0 -0 -0 -0 -0 -0 -0 -0 -0 -0 -0 0 0 0 -0 -0 0 0 -0 -0 -0 0 -0 -0 0 0 -0 -0 -0 -0 -0 -0 -0 -0 -1 -1 nan
nan 0 0 0 0 0 0 0 0 0 0 0 0 -0 -0 -0 -0 -0 -0 -0 0 0 -0 -0 -0 -0 -0 0 0 0 -0 -0 -0 -0 0 -0 -0 -0 -0 -0 -0 0 -0 -0 -0 -0 0 0 0 0 0 -0 -0 -0 -0 0 0 0 0 -0 -0 -0 -0 -0 -0 -0 -0 -0 -0 -0 -0 -0 -1 nan
nan 0 0 0 0 0 0 0 0 0 0 0 0 0 0 0 -0 -0 -0 -0 -0 -0 0 0 -0 0 0 0 0 0 -0 -0 -0 -0 -0 -0 -0 -0 -0 -0 0 -0 -0 -0 -0 -0 -0 0 0 0 0 -0 -0 -1 -1 0 1 0 0 -0 -0 -0 -0 -0 -0 -0 -0 -0 -0 -0 -0 -0 -1 nan
nan 1 0 0 0 0 0 0 -0 0 0 0 0 0 0 0 0 -0 -0 -0 -0 -0 0 0 0 0 0 0 0 0 0 0 -0 -0 -0 -0 -0 -0 -0 -0 -0 -0 -0 -0 -0 -0 0 0 0 0 0 -0 -0 -0 -1 -0 0 0 0 0 -0 -0 -0 -0 -0 -0 -0 -0 -0 -0 -0 -0 -0 nan
nan 1 0 0 0 0 0 0 0 0 0 0 0 0 0 0 0 0 -0 -0 -0 0 0 0 0 0 0 0 -0 -0 0 0 -0 -0 -0 -0 -0 -0 -0 -0 -0 -0 -0 -0 -0 0 0 0 0 0 0 -0 -0 -0 -0 -0 0 0 0 0 -0 -0 -0 -0 -0 -0 -0 -0 -0 -0 -0 -0 -0 nan
nan 0 0 0 0 0 0 0 0 0 0 0 0 0 0 0 0 0 0 0 0 0 0 -0 0 0 0 0 0 -0 -0 -0 -0 -0 0 -0 -0 -0 -0 -0 -0 -0 -0 -0 -0 0 0 0 0 0 0 0 -0 -0 -0 -0 -0 0 0 0 0 -0 0 0 -0 -0 -0 -0 -0 -0 -0 -0 -0 nan
nan 0 0 0 0 0 0 0 0 0 0 0 0 -0 0 0 0 0 0 0 1 1 0 -0 0 0 0 0 0 0 -0 0 0 -0 -0 -0 -0 -0 -0 -0 -0 -0 -0 -0 -0 -0 0 0 0 0 0 0 0 0 0 -0 -0 -0 0 0 0 0 0 0 -0 -0 -0 -0 -0 -0 -0 -0 -0 nan
nan 0 0 0 0 0 0 0 0 0 0 0 -0 -0 0 0 0 0 0 -0 -0 0 0 0 0 0 0 0 0 0 -0 0 0 -0 -0 -0 -0 -0 -0 -0 -0 -0 -0 -0 -0 -0 0 0 0 0 0 0 0 0 0 0 -0 -0 0 0 0 0 0 0 -0 -0 -0 -0 -0 -0 -0 -0 -0 nan
nan 1 0 0 0 0 0 0 0 0 0 -0 -0 -0 -0 -0 -0 -0 -0 -0 -1 -0 0 0 0 0 0 0 0 0 0 0 0 0 -0 -0 -0 -0 -0 -0 -0 -0 -0 -0 -0 -0 -0 0 0 0 -0 0 0 0 0 0 0 0 0 0 0 0 0 0 -0 -0 -0 -0 -0 -0 -0 -0 -0 nan
nan 0 0 0 0 0 0 0 0 0 -0 -0 -0 -0 0 0 -0 -0 -0 -0 -0 0 0 0 0 0 0 0 0 0 0 0 0 0 -0 -0 -0 -0 -0 -0 -0 -0 -0 -0 -0 -0 -0 -0 0 0 -0 -0 0 0 0 0 0 0 0 -0 0 0 0 -0 -0 -0 -0 -0 -0 -0 -0 -0 -0 nan
nan 0 0 0 0 0 0 0 0 -0 -0 -0 0 -0 -0 0 0 -0 -0 0 0 0 1 0 0 0 0 0 0 0 0 0 0 0 -0 -0 -0 -0 -0 -0 -0 -0 -0 -0 -0 -0 -0 -0 0 0 -0 -0 0 0 0 -0 0 0 0 -0 0 0 0 -0 -0 -0 -0 -0 -0 0 0 0 0 nan
nan nan nan nan nan nan nan nan nan nan nan nan nan nan nan nan nan nan nan nan nan nan nan nan nan nan nan nan nan nan nan nan nan nan nan nan nan nan nan nan nan nan nan nan nan nan nan nan nan nan nan nan nan nan nan nan nan nan nan nan nan nan nan nan nan nan nan nan nan nan nan nan nan nan
Wind_Speed
15 15 15 14 13 13 12 12 13 13 11 9 8 6 5 5 6 6 6 5 4 4 4 4 5 5 5 6 5 4 3 4 5 5 6 7 7 8 8 9 9 9 9 9 9 9 9 8 8 9 9 10 11 12 13 13 13 13 13 14 14 15 16 17 17 17 17 18 18 18 18 19 20 19
16 16 15 14 13 13 14 14 14 14 13 10 7 6 4 4 4 6 7 7 5 4 4 4 4 4 5 5 5 4 4 5 4 4 6 7 7 8 9 9 10 10 10 10 10 10 10 10 10 10 10 10 11 12 13 14 15 15 16 16 17 18 19 20 20 20 19 19 19 19 18 18 19 19
16 16 16 15 14 14 14 14 15 15 14 11 9 8 7 7 6 6 6 6 6 5 4 5 5 5 5 5 5 5 5 5 4 4 6 7 8 8 8 9 10 10 10 10 11 11 11 11 11 11 12 12 12 13 13 14 14 15 15 16 16 17 17 18 19 20 20 20 21 21 20 19 19 19
14 13 13 13 13 12 11 11 12 12 12 11 9 8 8 8 7 6 5 6 7 6 4 5 5 5 7 6 5 5 5 5 5 5 5 6 7 7 8 9 8 9 10 10 11 11 12 12 13 13 14 14 15 15 15 16 16 16 16 16 16 16 16 16 16 17 18 19 20 21 21 20 19 19
10 9 9 9 9 9 8 8 8 8 8 9 7 6 6 5 6 5 5 7 6 3 4 4 4 4 6 5 3 4 4 5 5 5 5 6 5 5 7 9 10 9 10 10 11 11 12 12 13 14 14 15 16 16 17 18 18 18 19 19 19 19 19 19 18 17 17 17 17 18 20 21 21 20
8 8 7 6 6 6 6 6 5 4 5 5 4 5 4 4 4 4 4 5 4 2 2 3 2 4 4 2 2 4 4 4 4 3 5 5 5 4 4 8 11 11 11 12 12 13 13 13 14 14 14 15 15 16 17 18 18 19 19 20 20 21 21 21 21 20 19 19 18 17 18 20 21 22
6 6 6 6 5 5 5 6 5 5 5 4 3 4 4 3 3 3 3 3 3 3 1 2 1 3 4 1 2 4 5 5 3 1 3 4 5 7 6 6 10 12 12 13 14 14 15 16 16 16 16 16 16 17 17 18 18 19 19 20 20 21 22 22 22 22 22 22 21 19 18 19 20 22
4 4 5 4 4 5 4 4 4 4 4 4 3 3 3 3 3 1 2 2 2 4 2 2 3 3 4 2 3 5 7 9 8 5 6 6 7 8 8 8 11 13 13 14 14 15 16 16 17 18 18 19 19 19 19 19 20 20 20 20 21 21 21 22 22 23 24 24 23 22 20 19 20 21
5 4 4 4 3 3 3 3 3 3 3 3 3 3 2 3 3 2 1 2 2 3 3 2 2 1 1 2 4 5 4 6 7 7 9 12 13 14 14 15 16 17 17 17 17 17 18 18 18 19 19 20 21 21 22 22 22 22 22 22 22 22 22 22 22 23 23 24 24 23 22 21 21 21
5 5 5 6 6 4 3 3 4 4 3 3 4 5 4 4 4 4 2 3 2 2 3 3 2 1 2 2 4 6 7 6 6 6 8 11 13 16 20 21 21 23 22 22 23 23 22 22 21 21 21 21 21 22 23 24 24 25 25 25 25 24 24 23 23 23 23 23 24 24 23 22 22 22
6 7 8 9 9 8 7 6 7 7 7 6 6 6 6 6 6 6 5 4 4 4 4 4 4 4 4 4 4 5 7 7 5 7 10 11 10 14 18 19 20 25 26 25 25 27 27 27 25 25 25 24 23 22 23 24 25 25 26 27 27 27 26 25 25 24 24 24 24 24 25 24 23 23
8 9 10 11 12 12 11 10 10 11 11 10 9 9 10 8 8 7 6 7 7 7 7 7 7 6 7 6 6 6 5 5 5 10 15 16 14 15 17 16 16 21 26 26 25 26 29 30 29 28 28 29 27 25 25 26 25 25 26 27 27 28 28 28 27 26 25 24 24 24 25 26 26 25
10 10 11 13 13 14 14 14 14 14 15 14 12 11 13 13 11 9 8 8 9 9 10 10 9 9 9 9 8 7 7 8 11 14 18 19 16 17 18 15 13 17 25 28 26 26 27 29 30 28 26 28 29 27 27 28 27 26 26 26 26 27 28 28 28 28 26 25 24 24 25 26 27 28
10 10 10 12 14 15 16 17 17 17 18 18 16 14 16 17 14 11 11 10 9 10 11 11 11 11 10 10 10 9 10 14 16 17 19 20 19 18 17 16 14 15 23 29 30 29 28 28 29 27 24 27 29 28 27 28 28 28 28 27 27 27 27 27 28 28 27 26 25 24 25 26 28 29
9 9 9 11 14 15 15 16 17 18 18 19 19 19 20 20 16 13 13 11 10 11 11 11 11 11 10 10 11 9 9 12 15 17 20 22 19 17 17 19 17 15 23 32 34 31 28 26 27 27 27 29 30 30 29 28 28 28 29 28 28 27 26 26 26 27 27 27 26 25 25 25 27 29
11 11 11 13 14 14 15 16 16 17 18 19 21 21 22 22 20 18 16 15 13 12 11 11 11 10 10 10 10 10 11 13 16 19 19 18 17 18 19 20 19 20 28 34 35 32 28 25 24 26 27 29 32 33 32 31 29 28 28 29 28 28 27 26 26 26 27 27 26 25 24 25 26 28
13 13 13 13 13 14 14 15 15 17 18 18 20 21 22 23 22 21 19 19 18 15 13 12 10 10 12 11 10 14 18 19 20 20 19 19 20 22 22 23 26 29 32 32 32 31 29 24 21 23 26 28 31 34 34 33 32 29 28 29 29 28 27 26 26 26 26 26 26 25 24 24 25 26
11 10 10 10 11 11 11 11 12 14 16 16 17 19 20 21 21 21 21 21 20 18 17 14 12 14 16 16 16 19 21 21 21 22 23 24 26 28 29 30 32 31 28 27 29 31 30 26 22 24 26 27 30 33 35 35 34 32 29 28 28 28 27 26 25 25 25 25 26 25 25 24 24 25
9 8 8 8 8 8 8 8 10 11 14 15 15 17 18 18 19 21 21 20 19 18 17 17 17 19 20 20 20 22 22 23 24 26 28 30 31 31 29 27 26 23 20 19 23 28 30 28 24 22 23 26 29 31 32 35 36 34 31 28 27 27 26 25 25 25 25 25 25 25 25 25 25 25
9 7 6 6 5 6 6 7 8 10 12 13 13 14 14 15 16 17 17 18 17 17 18 18 20 21 22 22 22 23 23 24 25 28 30 29 25 23 22 21 20 19 16 15 18 23 26 25 23 21 21 24 28 30 31 32 33 33 32 29 27 26 25 24 23 24 25 26 25 25 25 25 25 25
7 5 4 4 4 4 4 5 5 7 9 9 10 10 10 10 12 14 15 16 17 17 19 20 20 21 22 23 24 24 25 26 28 29 28 24 19 19 21 22 21 19 18 18 18 20 22 22 21 21 22 23 26 30 28 24 25 31 32 30 28 26 24 24 24 24 25 26 27 27 26 25 25 25
5 4 4 3 3 4 4 4 4 4 5 6 7 8 8 9 11 14 15 16 18 19 20 21 21 23 24 25 26 26 27 28 28 29 27 25 23 21 21 21 21 21 20 18 18 20 21 21 20 21 23 23 22 22 20 17 19 24 25 25 25 25 23 23 24 26 28 29 29 28 28 26 26 26
4 4 3 3 3 4 4 4 4 4 3 4 6 7 7 8 12 16 16 17 19 20 21 22 24 25 26 27 28 29 30 29 29 28 28 26 23 21 20 20 21 21 18 15 17 20 20 20 20 20 22 23 20 16 16 16 16 18 18 19 20 21 23 25 25 24 25 27 28 29 29 28 29 28
4 3 3 3 3 4 4 4 4 4 4 5 7 7 6 7 11 16 17 17 18 20 21 23 24 25 27 27 28 29 28 27 27 27 26 26 23 21 21 20 19 20 18 16 19 21 20 20 21 19 19 22 23 19 17 18 18 18 20 20 19 20 23 24 23 21 21 23 24 25 25 26 29 30
4 3 3 3 3 3 4 4 5 5 5 7 9 10 10 12 14 16 17 18 19 20 21 21 21 22 22 21 20 19 18 19 20 21 22 24 22 18 18 19 19 21 19 18 20 22 21 21 22 21 21 22 24 23 22 21 21 20 21 22 22 22 22 21 21 20 20 21 22 23 23 22 22 24
6 4 3 3 3 4 5 6 6 6 7 8 10 11 13 14 15 15 17 18 18 17 17 17 17 16 15 14 14 14 14 15 17 19 22 23 17 13 15 17 19 21 20 19 19 19 20 21 21 21 22 22 23 23 23 23 22 20 20 21 21 21 21 21 21 20 18 19 20 21 23 22 21 22
6 4 4 3 4 5 6 7 7 7 8 9 11 12 13 14 15 16 16 17 16 15 16 16 16 14 13 13 14 14 15 17 20 24 26 23 16 14 16 17 18 20 21 20 20 19 20 22 21 20 22 23 23 23 23 22 21 20 20 20 20 20 20 20 20 20 19 19 19 19 21 22 23 23
6 5 4 4 5 6 7 7 7 8 9 10 11 12 13 13 13 13 13 13 14 15 15 14 13 12 13 14 15 18 21 24 26 25 22 19 16 16 18 18 17 19 19 19 18 17 17 18 18 18 19 20 21 22 22 22 21 20 20 20 19 19 19 19 20 20 20 19 19 18 18 19 20 20
6 5 5 5 6 7 7 8 8 8 9 10 10 10 10 10 10 11 11 12 13 12 11 11 12 13 14 16 19 23 23 22 22 19 15 15 16 16 16 16 16 16 16 16 16 15 14 15 15 15 16 17 18 20 21 21 21 20 19 20 20 18 18 19 20 20 20 19 18 18 18 17 17 17
5 4 5 6 7 7 7 8 8 8 8 8 8 8 8 9 10 12 12 11 11 10 10 11 13 14 15 16 19 20 18 15 15 15 14 15 15 13 14 15 14 14 14 14 14 14 14 15 14 15 16 16 17 18 18 19 20 19 18 18 19 19 17 17 18 18 18 18 18 18 18 17 17 17
4 4 5 6 7 7 7 7 7 7 8 7 8 8 9 10 11 12 11 11 11 11 12 12 14 16 17 16 15 16 16 15 15 14 13 13 14 13 13 14 15 14 13 13 13 13 14 14 14 14 15 15 16 16 16 17 19 19 18 17 18 18 17 17 18 18 17 18 18 18 17 16 16 16
5 5 6 6 6 5 5 6 6 6 7 7 8 9 10 11 11 10 10 11 11 12 13 15 16 17 16 13 13 14 15 15 14 13 13 14 14 14 13 14 15 15 14 13 13 12 13 13 13 14 14 15 16 16 16 17 18 19 18 17 17 17 17 17 17 17 16 17 18 18 17 17 16 15
5 5 5 4 4 4 4 4 4 5 7 8 9 9 9 8 7 8 9 9 9 12 15 16 16 15 13 12 13 13 13 13 13 13 13 14 14 13 14 14 15 15 15 15 14 13 12 12 13 14 15 16 16 15 16 17 19 18 17 16 16 16 16 15 16 17 17 16 17 17 17 17 17 16
5 5 4 4 4 4 4 3 4 5 7 8 7 8 7 5 6 7 9 9 11 14 17 15 13 12 13 13 13 13 13 14 13 13 13 13 13 13 14 14 15 15 15 16 15 14 13 13 13 14 14 15 15 15 15 17 19 18 15 15 16 16 15 14 14 15 16 16 16 16 17 17 17 16
5 5 5 5 6 5 5 5 5 6 7 5 4 4 5 5 6 8 9 10 14 16 14 12 11 12 12 13 12 12 13 14 14 13 13 12 12 13 14 15 15 15 15 15 15 14 13 13 13 13 13 14 15 17 17 17 18 17 15 14 14 15 14 14 15 16 16 15 15 16 17 16 15 14
7 7 7 7 7 6 6 6 7 7 6 5 4 3 3 3 5 7 9 12 16 15 11 10 11 11 11 12 12 13 13 14 15 14 13 13 13 13 14 15 16 16 15 15 14 14 14 14 13 13 14 14 15 17 18 16 15 16 15 14 14 15 15 15 17 18 17 15 14 15 15 14 14 15
10 9 9 8 7 7 7 8 8 6 5 4 4 3 2 3 5 7 10 13 15 13 10 10 11 11 11 12 13 13 13 14 14 13 13 14 14 14 14 15 16 15 15 14 15 15 16 16 13 13 14 14 15 17 17 16 14 15 15 15 15 15 15 17 19 19 17 14 13 13 14 15 16 17
11 10 10 9 8 8 8 8 7 5 5 5 4 3 2 3 5 7 10 12 13 12 10 10 11 11 11 12 12 13 13 13 13 13 13 14 14 14 14 15 15 15 15 16 18 19 18 16 14 14 14 16 17 17 17 16 14 14 15 17 17 16 16 16 17 16 15 13 12 12 14 16 16 16
11 11 10 9 9 9 9 7 6 6 6 5 3 2 2 3 5 8 10 12 13 11 10 11 12 11 11 11 12 13 14 14 14 14 14 14 14 14 14 15 16 17 18 20 21 21 19 17 15 13 14 17 19 20 19 19 19 19 18 18 18 18 18 16 15 14 13 12 11 11 13 15 14 14
12 11 11 10 9 9 8 7 6 7 6 4 3 3 2 3 6 8 10 11 13 11 9 10 12 11 11 12 12 12 13 14 14 14 14 15 15 15 15 16 18 19 19 20 22 22 21 19 17 15 16 19 22 23 23 23 22 20 17 13 11 12 14 13 13 14 13 12 11 11 11 11 12 13
13 12 11 10 9 8 7 6 6 6 6 4 3 3 2 3 6 8 10 12 14 13 10 10 11 11 11 12 12 12 13 14 13 14 15 15 15 16 16 17 18 18 18 20 23 24 23 21 18 17 17 18 19 19 18 18 16 14 11 8 7 8 9 10 11 13 13 12 12 11 10 10 12 14
14 12 11 10 9 8 7 6 6 6 5 4 3 2 2 3 6 8 10 12 13 13 11 11 11 11 11 12 12 13 13 14 14 15 15 15 15 15 15 15 16 18 19 21 22 23 21 20 18 16 15 14 14 14 13 12 11 10 8 8 8 8 8 9 10 13 14 14 13 12 11 11 11 11
13 11 10 10 9 9 7 6 6 6 5 4 3 2 2 4 6 7 8 8 9 11 12 11 11 11 12 12 13 13 13 13 14 14 15 15 15 16 16 17 18 18 19 20 22 21 21 20 18 16 14 13 12 11 11 10 9 9 8 7 6 7 9 10 10 11 12 13 13 13 13 12 11 10
11 10 10 9 10 10 8 7 6 6 5 3 2 2 2 4 5 6 7 8 10 13 14 12 10 11 13 13 13 13 13 14 14 14 15 15 15 16 17 19 20 19 18 20 21 21 21 20 17 14 13 13 10 9 10 10 9 8 8 7 7 8 9 10 10 8 8 9 10 11 11 11 11 10
10 10 9 10 10 10 9 8 6 5 4 3 1 1 3 4 5 6 7 9 12 14 14 12 12 14 16 16 15 14 15 16 16 14 14 15 15 15 16 16 18 19 19 19 20 21 21 20 17 13 11 11 10 8 9 9 9 8 7 6 8 9 8 7 6 6 5 5 6 6 7 7 7 7
Wind_Direction
137 137 134 130 128 125 124 129 136 139 137 141 150 154 159 155 148 149 134 110 93 91 88 66 50 54 58 54 53 54 25 13 25 2 346 350 350 351 354 350 345 343 340 337 334 329 325 318 310 301 294 289 286 284 284 283 282 281 280 279 278 280 281 283 284 283 282 281 279 278 279 281 281 279
136 134 130 125 121 118 117 118 121 126 127 131 137 138 145 147 141 144 134 121 109 96 95 93 80 69 66 58 51 49 27 22 30 352 340 347 346 346 347 341 338 337 334 333 332 328 325 323 319 315 308 301 295 289 286 285 283 281 280 279 278 279 280 281 282 283 282 281 280 279 279 280 281 280
137 135 131 127 125 120 117 117 117 118 120 122 123 124 128 129 126 131 137 134 130 123 109 96 89 84 83 73 54 47 41 32 28 9 353 347 343 343 342 338 333 331 329 326 324 322 318 317 315 313 311 307 304 300 296 293 291 289 287 284 282 280 279 279 278 279 279 278 276 275 275 277 279 280
134 132 129 130 131 125 121 124 125 125 126 125 124 124 126 128 126 128 138 137 131 126 112 92 78 71 74 71 60 52 43 39 40 27 6 356 353 346 340 341 337 331 330 326 322 320 316 313 312 309 307 305 303 302 300 297 295 294 292 290 289 288 285 283 281 279 278 277 274 271 269 270 273 277
136 133 130 133 135 132 130 130 128 131 133 132 131 130 127 126 124 123 133 136 130 106 89 96 84 59 67 71 60 56 42 38 44 28 13 10 7 349 331 335 339 336 333 330 326 323 320 317 315 312 310 307 305 303 300 298 296 294 293 291 290 290 290 289 288 286 283 282 279 274 268 264 265 269
136 137 138 140 143 146 145 138 138 149 143 137 142 140 136 133 126 123 134 142 141 118 69 94 81 40 64 94 16 21 27 32 44 14 359 4 353 343 328 322 328 332 329 327 326 323 321 319 316 314 313 310 308 306 303 301 299 296 295 293 291 290 289 288 288 288 287 285 283 278 271 265 261 262
140 135 135 140 143 151 156 153 166 177 160 156 168 158 154 154 145 140 145 148 154 157 115 99 129 348 14 77 334 349 348 358 26 345 324 343 333 331 335 317 317 324 325 322 322 321 320 319 317 316 314 313 311 309 306 305 303 301 298 295 293 291 288 287 286 286 286 286 284 279 273 267 261 259
163 150 147 152 147 144 149 157 177 188 173 170 180 174 171 178 188 187 152 148 162 168 160 142 185 296 345 357 330 343 336 337 347 334 318 325 317 317 325 319 311 312 313 310 311 313 312 312 312 312 312 312 311 310 309 308 306 304 302 299 296 293 290 288 285 284 283 283 282 280 274 268 264 260
193 190 186 195 189 166 158 165 188 202 192 186 193 195 190 198 233 268 188 168 176 175 181 177 190 251 304 295 317 339 331 324 332 329 322 324 321 316 317 317 310 307 308 307 306 307 306 306 306 306 307 307 308 308 307 307 306 305 304 302 299 296 292 289 286 284 282 280 279 278 274 269 265 262
221 226 224 224 227 227 220 218 227 235 229 213 213 216 210 214 242 259 239 221 226 208 206 217 239 248 237 265 301 320 323 320 318 320 323 323 321 316 317 319 314 309 310 311 310 308 307 306 304 303 302 302 303 304 303 302 303 303 302 301 300 297 294 291 288 284 281 279 277 275 273 270 265 261
237 243 243 240 241 243 244 244 246 257 264 257 245 240 231 228 245 256 247 237 245 246 243 253 262 265 273 281 282 300 321 328 316 316 323 319 310 308 314 319 315 309 310 315 316 313 309 306 305 303 302 300 299 301 301 300 300 300 299 298 297 296 295 292 290 287 283 279 275 273 271 269 265 261
248 252 251 249 249 250 250 249 248 254 263 266 261 257 254 248 251 257 246 238 252 259 263 275 279 278 285 292 296 304 318 324 310 312 321 322 314 308 312 317 311 304 307 313 318 319 316 311 310 309 307 303 301 303 304 300 298 298 296 295 294 293 293 292 290 288 285 281 276 272 269 267 265 261
261 262 260 256 253 254 254 253 250 249 252 256 254 254 260 262 260 260 248 241 253 260 267 277 276 279 288 288 292 299 299 307 315 319 325 326 319 311 311 313 308 301 304 310 314 318 317 312 311 313 312 306 304 306 307 304 302 301 299 296 294 292 290 290 289 288 286 283 278 273 268 265 263 261
269 268 268 264 259 256 255 255 254 252 252 254 251 246 252 260 262 258 251 247 250 257 268 275 270 276 288 283 282 291 297 307 316 322 325 324 318 314 313 312 312 306 304 309 314 316 315 312 312 312 310 307 306 307 307 307 306 305 302 300 297 294 290 288 286 286 285 283 280 275 270 265 261 260
274 270 265 264 265 263 259 257 256 256 256 257 256 250 251 257 258 250 246 246 248 255 266 272 268 273 283 280 282 289 297 308 316 320 323 323 319 315 312 310 311 307 304 308 313 316 315 314 313 311 310 310 309 308 306 307 307 305 303 302 299 296 293 289 285 283 282 282 281 277 272 267 262 258
268 267 262 260 264 265 262 261 260 259 257 257 259 258 257 258 255 247 243 242 244 250 260 267 270 273 281 286 282 278 285 301 312 317 320 319 313 309 308 307 305 304 305 309 311 312 312 314 312 310 310 311 310 309 308 307 307 306 304 302 300 298 295 291 286 283 280 279 278 276 273 268 263 259
259 259 261 260 262 264 264 265 264 263 263 261 261 263 262 260 254 247 244 245 248 251 254 263 268 268 277 285 277 275 288 302 310 314 314 310 307 305 303 300 300 303 306 309 309 308 311 314 309 305 307 307 307 309 309 308 307 307 305 302 300 299 297 293 288 283 279 277 275 273 271 267 264 260
250 248 250 252 257 261 264 266 265 266 268 267 265 266 266 261 251 243 241 244 249 251 252 259 265 269 279 286 282 286 296 303 306 309 309 307 305 302 300 301 305 308 311 310 308 308 312 313 306 303 306 305 304 307 309 308 308 307 305 302 299 297 296 292 288 283 278 275 273 270 268 266 263 260
230 229 229 236 247 255 260 264 265 266 269 271 270 267 263 257 248 243 243 244 248 252 257 266 272 279 287 291 290 295 301 303 305 308 308 308 308 306 305 306 307 308 306 300 297 301 308 310 305 301 302 302 303 305 306 307 308 307 306 304 301 297 294 290 285 281 278 276 273 271 267 265 262 260
217 217 218 226 240 252 260 263 265 266 267 269 268 263 259 256 252 248 246 247 251 258 267 276 282 287 291 293 293 295 299 301 306 308 308 309 308 305 301 299 299 299 294 285 284 290 298 304 302 298 297 298 300 302 304 306 306 305 306 305 302 297 292 287 281 277 275 275 274 272 270 267 264 260
210 211 219 231 241 252 261 262 264 264 261 259 260 259 258 256 253 250 250 254 261 269 276 282 285 288 290 290 292 294 296 300 303 304 304 303 298 293 292 293 294 294 292 289 284 282 287 295 297 296 295 294 296 300 305 304 299 301 306 307 305 300 293 285 277 272 271 272 273 273 273 272 269 266
213 224 233 245 253 264 273 276 278 269 253 247 251 255 257 256 255 256 259 264 271 276 281 284 286 288 290 292 294 295 297 300 300 300 301 300 297 294 291 292 293 293 295 293 285 279 284 292 294 295 296 295 292 294 296 292 290 297 305 309 309 309 305 293 281 272 267 267 268 270 273 275 275 274
221 231 248 265 275 286 292 294 295 285 260 239 242 251 255 256 260 264 268 274 279 282 285 286 288 290 292 293 295 297 298 298 298 299 300 302 301 295 290 290 292 292 294 292 287 286 289 292 293 295 298 296 294 290 288 287 289 293 297 300 303 306 304 298 292 285 279 275 273 272 271 272 273 275
226 236 259 278 290 300 302 303 304 294 275 252 247 249 239 236 255 269 275 278 281 285 287 290 293 296 297 298 300 302 303 303 303 303 304 304 303 296 291 290 287 285 287 286 284 286 289 291 293 294 293 292 292 292 290 288 288 289 291 293 293 293 293 294 295 296 295 294 291 285 279 274 272 271
203 236 267 285 298 312 315 315 312 298 282 268 261 257 249 248 260 273 279 281 284 289 292 295 298 299 300 301 301 301 300 299 299 299 300 300 299 292 288 288 285 284 285 284 282 285 288 290 292 292 289 287 288 290 290 288 286 284 285 285 285 286 287 287 288 289 290 292 292 292 292 289 283 277
188 237 275 294 309 321 323 319 312 299 285 275 269 264 261 263 268 275 283 288 292 294 296 296 297 296 296 294 291 290 288 288 289 289 290 291 289 281 280 283 283 284 285 285 286 289 288 287 287 288 289 287 287 289 289 287 285 283 282 281 281 282 284 284 285 285 285 285 284 285 288 288 284 282
214 261 287 304 316 322 322 318 311 300 286 274 270 268 268 270 273 278 286 291 293 295 295 295 296 296 294 291 290 289 288 286 287 288 290 290 288 283 283 281 280 281 284 286 287 285 283 284 284 283 284 285 286 287 287 286 286 286 285 282 281 281 281 283 284 284 283 282 279 277 278 280 282 283
248 270 287 304 314 319 319 315 306 295 282 275 273 274 275 277 281 286 292 294 296 298 299 298 298 296 293 293 293 292 291 291 292 294 296 296 292 287 286 285 282 282 283 284 285 282 279 280 281 280 280 280 281 282 283 285 287 287 286 285 283 282 282 282 283 283 283 282 280 277 274 274 279 283
249 267 290 305 311 314 313 307 299 289 282 280 278 279 284 289 295 299 299 297 299 301 300 297 297 298 299 298 298 299 298 299 301 302 299 294 290 287 287 287 285 283 285 286 285 283 280 279 280 280 279 276 276 278 281 284 285 285 286 285 284 283 283 282 281 282 282 281 279 277 274 272 273 273
243 272 294 301 305 307 303 297 292 286 283 284 284 288 296 302 305 304 300 299 301 303 302 301 302 304 303 302 305 309 307 302 301 302 297 294 294 294 293 292 289 287 287 286 284 283 281 279 278 279 278 276 275 276 279 282 284 284 283 283 285 285 284 283 282 282 282 281 278 275 273 272 270 267
255 280 292 293 295 296 291 287 286 284 285 290 294 301 306 306 305 302 299 301 305 308 311 311 309 310 310 309 311 311 305 298 299 300 299 297 297 296 296 294 292 292 292 290 288 285 282 279 277 276 276 276 276 277 279 280 281 282 283 282 282 282 282 283 283 282 281 281 281 279 276 274 271 268
263 273 279 280 280 279 278 281 285 287 291 297 300 304 307 307 307 306 308 312 316 317 319 318 315 314 315 311 307 303 299 299 301 301 299 297 296 296 296 293 293 296 298 297 296 291 285 282 278 276 275 275 276 278 279 278 277 279 281 281 279 279 280 282 283 283 284 283 281 279 275 272 269 267
260 258 256 258 261 266 273 275 274 281 290 298 301 304 308 310 310 314 319 320 319 319 323 323 319 316 313 307 305 306 304 302 302 301 299 298 296 295 294 292 294 297 299 300 300 297 291 285 279 276 276 278 279 277 275 276 279 280 279 280 280 278 279 280 281 283 285 284 281 279 276 272 269 269
248 240 238 242 243 248 256 252 249 269 287 297 302 305 310 308 306 316 325 326 325 326 328 328 322 313 308 306 306 307 304 303 304 304 300 299 298 296 294 294 294 296 298 299 300 299 296 291 286 281 278 279 281 279 273 275 281 284 280 278 278 277 278 280 282 283 283 281 278 276 275 273 273 275
234 232 234 236 236 235 230 230 242 264 279 280 271 284 303 310 314 323 329 329 332 333 330 323 316 310 307 306 305 305 305 307 308 307 303 300 298 296 294 294 294 296 297 298 299 300 298 295 290 284 281 281 283 285 284 284 285 284 280 276 276 277 279 280 279 278 278 278 276 273 274 275 276 276
227 227 220 217 222 222 218 231 250 262 264 255 235 238 275 298 308 321 328 332 338 341 331 315 314 313 310 308 307 306 308 308 307 305 303 301 299 297 296 294 294 296 297 296 297 299 299 296 291 283 281 282 281 284 291 295 288 279 274 273 274 277 280 280 275 273 275 280 283 280 280 283 282 279
219 213 204 201 207 208 212 232 251 253 240 227 218 223 258 294 309 323 333 338 340 339 327 315 315 314 311 311 311 310 310 308 305 303 301 300 300 297 295 295 295 297 297 295 296 301 302 298 289 278 278 281 279 281 291 299 293 280 273 271 272 273 273 273 272 273 276 282 284 280 280 285 287 286
202 197 193 192 197 206 218 231 239 226 207 201 206 235 285 314 319 327 337 341 338 334 326 320 318 316 314 315 316 315 313 309 305 302 300 300 299 295 294 296 297 298 299 299 303 307 307 299 286 276 276 278 279 285 294 300 296 287 277 272 272 273 271 271 273 276 277 277 279 281 283 286 288 289
187 189 191 191 198 212 222 224 211 194 192 193 202 247 299 322 328 335 343 343 337 332 327 323 320 319 319 319 317 315 312 310 307 305 301 300 298 294 292 295 299 303 307 309 311 314 312 304 292 280 273 274 281 289 294 295 295 297 295 289 283 278 274 273 273 276 279 279 278 282 288 291 291 292
182 185 188 192 201 210 209 199 187 185 186 190 208 241 290 329 338 343 344 336 332 332 330 326 326 325 323 322 320 316 314 311 308 304 301 298 295 294 296 304 311 313 312 310 312 315 316 312 303 286 272 274 282 289 292 295 300 308 311 308 295 280 274 272 268 270 275 278 278 282 288 292 294 298
186 188 191 197 200 196 185 174 174 182 184 191 219 248 302 337 337 341 343 342 346 350 344 332 330 328 325 325 323 318 315 312 308 305 303 299 295 295 302 311 315 315 310 307 310 315 317 315 309 297 285 283 286 289 293 297 303 309 309 304 294 284 280 275 270 268 271 274 275 280 284 285 290 299
190 190 196 198 188 174 167 166 174 187 190 197 224 251 311 334 335 343 348 348 349 349 341 332 332 331 328 326 324 320 317 314 310 307 304 300 298 298 304 311 314 315 315 315 315 317 319 320 318 311 303 299 297 299 300 298 297 299 300 296 292 291 290 283 275 272 273 272 269 269 273 280 290 300
193 191 195 192 175 162 162 167 177 189 193 200 227 252 314 331 334 343 344 336 334 336 336 335 336 334 330 327 325 321 317 314 313 310 307 304 301 302 308 316 319 321 323 323 322 322 324 326 325 316 308 306 306 303 301 301 299 298 300 299 292 288 290 292 288 280 275 274 270 265 266 273 279 283
195 190 191 185 171 162 162 167 178 189 190 195 234 280 317 327 330 335 334 331 334 338 340 340 339 336 334 330 326 323 324 327 327 323 316 310 305 303 308 316 323 327 329 328 327 327 327 328 327 316 304 305 307 295 288 293 297 293 289 287 283 281 285 294 300 294 282 276 270 262 262 268 271 272
188 184 184 178 170 165 164 167 174 186 190 189 223 310 314 321 331 335 330 329 335 340 343 342 339 338 339 339 335 333 335 337 333 324 315 310 308 306 307 311 320 328 332 332 331 329 328 329 331 324 309 307 310 299 289 294 302 304 298 289 285 288 293 301 314 320 311 290 271 257 258 265 266 267
Height
1561 1562 1562 1562 1563 1563 1563 1564 1564 1564 1566 1567 1568 1570 1570 1571 1571 1572 1573 1574 1574 1573 1573 1573 1572 1571 1570 1569 1569 1568 1568 1567 1567 1566 1565 1564 1563 1562 1562 1561 1560 1560 1559 1558 1557 1557 1556 1556 1556 1555 1554 1554 1554 1553 1553 1553 1554 1554 1554 1553 1553 1553 1553 1552 1552 1551 1551 1551 1550 1550 1550 1549 1549 1549
1562 1563 1563 1564 1564 1564 1564 1564 1565 1565 1566 1567 1569 1569 1570 1570 1571 1571 1572 1573 1574 1573 1573 1573 1572 1571 1570 1570 1569 1568 1568 1567 1567 1566 1565 1564 1564 1563 1562 1561 1560 1560 1559 1558 1557 1557 1556 1556 1555 1554 1554 1553 1553 1552 1552 1552 1552 1551 1551 1551 1551 1551 1550 1550 1549 1549 1549 1548 1548 1548 1548 1547 1547 1546
1563 1564 1564 1564 1565 1565 1565 1566 1566 1566 1567 1568 1569 1569 1570 1570 1571 1571 1572 1573 1573 1573 1572 1572 1571 1571 1570 1570 1569 1569 1568 1567 1567 1566 1565 1564 1563 1563 1562 1561 1560 1560 1559 1558 1557 1557 1556 1555 1554 1554 1553 1552 1552 1551 1551 1551 1550 1550 1549 1549 1549 1548 1548 1547 1547 1546 1546 1545 1545 1545 1545 1545 1545 1544
1564 1565 1565 1565 1566 1566 1566 1567 1567 1567 1568 1569 1569 1570 1570 1570 1571 1571 1572 1572 1572 1572 1572 1571 1571 1570 1570 1570 1570 1569 1568 1568 1567 1566 1565 1564 1563 1562 1561 1561 1560 1559 1558 1557 1557 1556 1555 1554 1553 1553 1552 1551 1551 1550 1550 1549 1549 1548 1548 1547 1547 1546 1545 1545 1544 1544 1543 1542 1542 1542 1543 1543 1542 1542
1565 1566 1566 1566 1566 1567 1567 1568 1568 1568 1568 1569 1570 1570 1571 1571 1571 1571 1572 1572 1571 1571 1571 1571 1571 1570 1570 1570 1570 1569 1568 1567 1567 1566 1565 1564 1563 1563 1562 1560 1559 1558 1557 1556 1556 1555 1554 1553 1552 1551 1551 1550 1549 1548 1548 1547 1547 1546 1546 1545 1544 1544 1543 1543 1542 1541 1541 1540 1539 1539 1539 1540 1540 1540
1565 1566 1566 1567 1567 1567 1567 1568 1569 1569 1569 1570 1571 1571 1571 1571 1571 1572 1572 1572 1572 1571 1571 1570 1570 1570 1570 1570 1569 1568 1568 1567 1567 1566 1565 1564 1563 1563 1562 1560 1558 1557 1556 1555 1554 1553 1552 1551 1551 1550 1549 1548 1548 1547 1546 1545 1544 1544 1543 1543 1542 1541 1541 1540 1539 1539 1538 1537 1537 1536 1536 1536 1537 1537
1565 1566 1566 1566 1566 1567 1567 1568 1569 1569 1569 1570 1571 1571 1571 1571 1571 1571 1572 1572 1572 1571 1570 1570 1570 1569 1569 1569 1569 1567 1567 1566 1566 1566 1565 1564 1563 1561 1561 1560 1558 1556 1555 1554 1553 1552 1551 1550 1549 1548 1547 1546 1546 1545 1544 1543 1542 1541 1541 1540 1539 1539 1538 1537 1537 1536 1535 1535 1534 1534 1534 1533 1533 1533
1565 1565 1566 1566 1566 1567 1567 1567 1568 1568 1569 1570 1570 1570 1570 1570 1570 1571 1571 1572 1572 1571 1570 1570 1570 1569 1568 1568 1568 1567 1566 1565 1564 1564 1564 1563 1562 1561 1560 1559 1557 1555 1554 1553 1552 1551 1550 1548 1547 1546 1545 1544 1543 1542 1541 1540 1539 1539 1538 1537 1536 1536 1535 1534 1534 1533 1532 1532 1531 1531 1531 1531 1530 1530
1565 1565 1566 1566 1566 1566 1567 1567 1568 1568 1568 1569 1570 1570 1570 1571 1570 1570 1571 1571 1571 1571 1570 1570 1569 1569 1568 1568 1567 1566 1566 1566 1565 1564 1562 1561 1560 1558 1558 1557 1556 1554 1553 1552 1550 1549 1548 1547 1546 1544 1543 1542 1541 1540 1538 1537 1536 1535 1535 1534 1533 1532 1532 1531 1530 1530 1529 1529 1528 1527 1527 1527 1527 1527
1564 1564 1565 1565 1565 1566 1566 1566 1567 1567 1567 1568 1569 1569 1570 1570 1570 1569 1570 1571 1571 1571 1570 1569 1568 1568 1568 1567 1566 1565 1565 1565 1565 1564 1563 1561 1559 1557 1556 1555 1553 1551 1550 1549 1548 1547 1546 1545 1544 1542 1541 1540 1539 1537 1536 1535 1534 1532 1531 1531 1530 1529 1528 1527 1527 1526 1526 1525 1525 1524 1524 1524 1524 1524
1563 1563 1564 1564 1564 1564 1565 1565 1566 1566 1566 1567 1567 1568 1568 1569 1569 1569 1570 1570 1570 1570 1570 1569 1569 1568 1567 1566 1566 1565 1564 1564 1564 1563 1562 1561 1560 1558 1555 1554 1552 1549 1548 1547 1545 1544 1542 1541 1540 1539 1538 1537 1537 1535 1534 1532 1531 1530 1528 1527 1526 1525 1525 1524 1523 1523 1522 1522 1521 1521 1520 1520 1521 1521
1561 1561 1562 1562 1562 1563 1563 1564 1564 1565 1565 1565 1566 1566 1566 1567 1567 1568 1568 1569 1569 1569 1568 1568 1568 1568 1567 1566 1565 1564 1563 1563 1563 1561 1560 1559 1558 1557 1554 1553 1551 1548 1546 1546 1544 1542 1540 1538 1537 1536 1534 1533 1532 1532 1531 1529 1528 1527 1526 1524 1523 1522 1521 1520 1519 1519 1518 1518 1518 1517 1517 1517 1517 1517
1559 1559 1560 1560 1560 1561 1561 1561 1562 1562 1563 1563 1564 1565 1564 1565 1565 1566 1567 1567 1567 1567 1567 1566 1566 1566 1566 1565 1565 1564 1562 1561 1560 1559 1558 1557 1556 1555 1553 1552 1551 1547 1544 1544 1543 1541 1539 1537 1535 1534 1533 1530 1529 1529 1527 1525 1524 1524 1522 1521 1520 1519 1518 1517 1516 1515 1514 1514 1514 1513 1513 1513 1513 1513
1558 1558 1558 1558 1558 1558 1559 1559 1559 1560 1560 1561 1562 1563 1563 1562 1563 1564 1565 1565 1565 1565 1565 1565 1565 1565 1564 1563 1563 1562 1560 1559 1558 1557 1556 1555 1554 1553 1551 1550 1549 1546 1542 1540 1540 1539 1537 1535 1533 1532 1531 1528 1526 1526 1525 1523 1521 1520 1519 1518 1517 1516 1515 1514 1512 1511 1511 1510 1509 1509 1509 1509 1509 1509
1556 1556 1556 1556 1556 1556 1556 1557 1557 1557 1558 1558 1559 1560 1560 1560 1560 1562 1562 1563 1563 1563 1563 1563 1563 1563 1562 1561 1561 1560 1559 1558 1556 1555 1554 1553 1552 1551 1550 1548 1547 1545 1541 1538 1537 1536 1534 1532 1530 1529 1528 1526 1524 1523 1521 1520 1519 1517 1515 1514 1513 1512 1511 1510 1509 1508 1507 1506 1506 1505 1505 1505 1505 1505
1554 1554 1555 1554 1554 1554 1554 1555 1555 1555 1556 1556 1556 1557 1557 1557 1558 1558 1559 1560 1560 1561 1561 1562 1562 1561 1560 1560 1559 1558 1557 1556 1555 1554 1553 1552 1551 1549 1548 1546 1545 1543 1540 1537 1534 1533 1532 1531 1528 1526 1525 1523 1521 1519 1517 1516 1515 1514 1512 1511 1509 1508 1507 1506 1506 1505 1504 1503 1502 1502 1502 1501 1501 1501
1552 1552 1552 1552 1553 1552 1552 1553 1553 1553 1553 1554 1554 1554 1554 1554 1555 1555 1556 1557 1557 1558 1558 1559 1559 1558 1558 1558 1557 1555 1555 1554 1553 1552 1551 1550 1549 1547 1546 1544 1542 1540 1537 1535 1532 1530 1529 1528 1526 1524 1523 1520 1518 1516 1514 1512 1511 1510 1509 1507 1506 1505 1503 1503 1502 1501 1501 1500 1499 1499 1498 1498 1498 1497
1550 1550 1550 1551 1551 1550 1550 1551 1551 1551 1551 1551 1552 1552 1552 1552 1552 1552 1553 1554 1555 1555 1556 1556 1556 1555 1555 1555 1554 1553 1552 1552 1550 1550 1549 1548 1546 1544 1542 1540 1538 1535 1534 1531 1528 1526 1526 1525 1524 1521 1520 1518 1515 1513 1511 1509 1507 1507 1506 1504 1503 1501 1500 1499 1498 1498 1497 1497 1496 1496 1495 1495 1494 1494
1548 1549 1549 1549 1549 1549 1549 1549 1549 1550 1549 1549 1550 1550 1549 1549 1549 1550 1551 1552 1552 1553 1553 1553 1553 1552 1552 1552 1551 1550 1550 1548 1547 1547 1545 1544 1542 1540 1538 1536 1534 1533 1531 1529 1526 1523 1522 1522 1520 1518 1517 1515 1512 1510 1508 1505 1504 1502 1502 1501 1499 1498 1497 1496 1495 1494 1493 1493 1493 1493 1492 1492 1491 1491
1546 1547 1547 1547 1548 1548 1548 1548 1548 1548 1548 1548 1548 1548 1547 1547 1548 1548 1549 1550 1551 1551 1551 1551 1550 1550 1550 1549 1548 1548 1547 1546 1545 1543 1542 1540 1539 1537 1535 1534 1532 1531 1530 1528 1525 1522 1519 1519 1517 1515 1514 1512 1509 1507 1506 1503 1500 1498 1498 1497 1496 1495 1493 1493 1492 1491 1490 1490 1490 1489 1489 1489 1488 1488
1544 1545 1545 1546 1546 1546 1546 1546 1546 1546 1546 1546 1546 1546 1546 1546 1547 1548 1548 1549 1549 1549 1549 1548 1548 1547 1547 1546 1545 1545 1544 1543 1542 1541 1539 1538 1537 1535 1533 1531 1530 1529 1527 1526 1524 1520 1518 1517 1515 1512 1510 1509 1506 1504 1502 1501 1498 1495 1493 1493 1492 1491 1490 1489 1488 1488 1487 1487 1486 1486 1486 1486 1486 1485
1542 1543 1543 1544 1544 1544 1544 1544 1544 1545 1545 1545 1545 1546 1546 1546 1546 1547 1547 1547 1547 1547 1546 1546 1545 1544 1544 1543 1542 1541 1541 1540 1539 1537 1536 1535 1534 1532 1530 1528 1526 1525 1524 1522 1520 1517 1516 1514 1513 1510 1507 1505 1503 1502 1500 1499 1497 1494 1492 1490 1488 1488 1487 1486 1485 1484 1483 1483 1483 1482 1482 1482 1482 1482
1540 1541 1541 1542 1542 1542 1542 1543 1543 1543 1544 1544 1545 1545 1546 1546 1545 1545 1545 1545 1545 1544 1544 1543 1542 1541 1540 1540 1539 1537 1536 1536 1535 1534 1532 1531 1530 1529 1527 1526 1524 1522 1521 1520 1517 1514 1513 1512 1510 1508 1505 1502 1500 1500 1499 1497 1496 1495 1493 1491 1489 1487 1485 1483 1482 1481 1480 1480 1479 1479 1479 1479 1479 1479
1538 1539 1539 1540 1540 1541 1541 1541 1541 1542 1542 1543 1543 1544 1545 1545 1544 1543 1543 1543 1543 1542 1541 1540 1539 1538 1537 1536 1535 1533 1532 1531 1530 1529 1528 1527 1526 1525 1523 1522 1521 1519 1518 1518 1515 1512 1510 1509 1507 1506 1505 1501 1498 1497 1496 1496 1495 1494 1493 1491 1490 1488 1486 1483 1481 1479 1478 1478 1477 1476 1476 1476 1476 1476
1536 1537 1537 1538 1538 1539 1539 1539 1540 1540 1541 1541 1542 1542 1543 1543 1542 1541 1541 1541 1540 1540 1539 1538 1537 1536 1535 1534 1533 1532 1530 1529 1527 1526 1525 1523 1523 1522 1520 1519 1518 1516 1515 1514 1512 1509 1508 1506 1505 1504 1502 1500 1496 1494 1493 1493 1492 1491 1491 1490 1488 1486 1485 1483 1480 1479 1477 1476 1475 1474 1473 1473 1473 1472
1535 1535 1535 1536 1536 1537 1537 1537 1538 1538 1539 1539 1540 1540 1540 1540 1540 1540 1539 1538 1538 1538 1537 1536 1535 1535 1534 1533 1532 1531 1529 1528 1526 1524 1522 1520 1519 1518 1517 1516 1514 1512 1511 1510 1509 1507 1505 1503 1502 1501 1499 1496 1494 1492 1490 1489 1488 1488 1487 1486 1485 1483 1482 1480 1478 1476 1476 1475 1474 1473 1471 1470 1470 1470
1533 1533 1534 1534 1535 1535 1535 1536 1536 1536 1537 1537 1537 1538 1538 1537 1537 1537 1537 1536 1536 1536 1535 1534 1533 1532 1532 1531 1530 1528 1527 1525 1523 1521 1518 1517 1516 1514 1513 1512 1511 1509 1508 1506 1505 1504 1502 1500 1499 1498 1496 1494 1491 1489 1487 1486 1485 1484 1483 1482 1482 1480 1479 1478 1476 1474 1473 1473 1472 1471 1470 1469 1468 1467
1531 1531 1532 1533 1533 1533 1534 1534 1534 1535 1535 1535 1535 1535 1535 1535 1535 1535 1535 1535 1534 1533 1533 1532 1531 1530 1529 1528 1527 1525 1523 1521 1518 1516 1515 1514 1514 1513 1511 1509 1507 1505 1503 1501 1500 1499 1497 1496 1494 1494 1493 1491 1489 1486 1485 1483 1482 1481 1480 1479 1478 1477 1476 1475 1474 1472 1471 1470 1469 1469 1468 1467 1467 1466
1529 1530 1530 1531 1532 1532 1532 1532 1532 1533 1533 1533 1533 1533 1533 1533 1533 1533 1533 1533 1532 1531 1531 1530 1529 1528 1526 1525 1523 1520 1518 1517 1515 1514 1513 1512 1511 1509 1507 1504 1502 1501 1499 1497 1495 1494 1493 1492 1490 1489 1488 1487 1486 1484 1482 1481 1480 1479 1478 1476 1475 1474 1473 1472 1471 1470 1469 1468 1467 1467 1466 1466 1465 1465
1527 1528 1528 1529 1530 1530 1530 1531 1531 1531 1531 1532 1532 1532 1532 1531 1531 1531 1531 1531 1530 1530 1529 1528 1526 1525 1524 1522 1520 1518 1517 1515 1514 1512 1510 1508 1506 1504 1502 1501 1499 1498 1496 1495 1493 1492 1491 1489 1488 1487 1485 1484 1483 1482 1480 1479 1477 1476 1475 1474 1473 1471 1470 1469 1468 1467 1466 1465 1464 1464 1463 1463 1463 1462
1525 1526 1527 1528 1528 1529 1529 1529 1529 1530 1530 1530 1530 1530 1530 1530 1530 1529 1529 1529 1528 1527 1526 1525 1524 1522 1521 1519 1518 1518 1516 1514 1512 1509 1507 1504 1502 1501 1500 1498 1496 1495 1493 1492 1491 1489 1488 1486 1485 1484 1483 1481 1480 1479 1478 1477 1475 1473 1472 1472 1470 1469 1468 1467 1466 1464 1463 1462 1461 1461 1461 1461 1461 1460
1523 1524 1525 1526 1527 1527 1527 1528 1528 1529 1529 1529 1529 1529 1528 1528 1528 1528 1527 1527 1526 1525 1524 1523 1521 1519 1518 1517 1517 1516 1514 1511 1509 1507 1505 1503 1501 1499 1497 1496 1494 1492 1491 1490 1489 1487 1486 1484 1483 1482 1480 1479 1478 1477 1476 1474 1472 1471 1470 1469 1468 1466 1465 1464 1463 1462 1461 1460 1459 1459 1459 1459 1459 1458
1522 1523 1524 1525 1525 1526 1526 1527 1528 1528 1528 1528 1528 1527 1527 1527 1527 1527 1526 1525 1525 1523 1522 1520 1518 1517 1516 1515 1514 1512 1510 1508 1506 1505 1503 1501 1499 1497 1496 1494 1492 1491 1489 1488 1486 1485 1484 1482 1481 1479 1478 1476 1475 1474 1473 1471 1469 1468 1468 1466 1465 1464 1463 1462 1461 1460 1459 1458 1458 1457 1457 1457 1457 1456
1520 1521 1522 1523 1524 1524 1525 1526 1527 1527 1527 1527 1527 1526 1526 1526 1526 1525 1525 1524 1523 1521 1519 1517 1517 1516 1515 1513 1511 1509 1507 1505 1503 1502 1500 1498 1497 1495 1494 1492 1490 1489 1487 1486 1484 1483 1481 1480 1479 1477 1476 1474 1473 1472 1471 1469 1467 1466 1465 1464 1463 1462 1461 1460 1459 1458 1457 1457 1456 1455 1454 1454 1454 1454
1519 1520 1521 1522 1523 1524 1525 1525 1526 1526 1525 1526 1526 1525 1525 1525 1524 1524 1523 1522 1521 1519 1517 1516 1516 1514 1513 1511 1508 1506 1504 1502 1500 1499 1497 1496 1495 1493 1492 1490 1489 1487 1485 1484 1482 1481 1480 1478 1477 1475 1474 1472 1470 1469 1468 1466 1465 1463 1463 1462 1461 1460 1459 1458 1457 1456 1455 1455 1454 1453 1452 1452 1452 1452
1517 1519 1520 1521 1522 1522 1524 1524 1524 1524 1524 1524 1524 1525 1525 1524 1524 1523 1522 1520 1519 1517 1516 1515 1514 1512 1510 1508 1506 1504 1502 1500 1498 1497 1495 1494 1493 1492 1490 1489 1487 1485 1484 1482 1481 1480 1478 1476 1475 1473 1472 1470 1468 1466 1464 1464 1463 1461 1460 1460 1459 1458 1457 1456 1455 1454 1453 1453 1453 1452 1451 1450 1449 1449
1516 1517 1519 1520 1520 1521 1522 1522 1522 1522 1522 1522 1523 1523 1523 1523 1523 1522 1520 1519 1517 1516 1515 1514 1513 1511 1509 1507 1504 1502 1501 1499 1497 1495 1494 1492 1491 1490 1488 1487 1485 1484 1482 1481 1479 1478 1476 1474 1473 1472 1470 1468 1466 1464 1462 1461 1460 1459 1458 1457 1456 1455 1455 1454 1453 1452 1452 1452 1451 1450 1449 1448 1447 1446
1515 1516 1517 1518 1519 1520 1521 1521 1520 1520 1521 1521 1521 1522 1522 1522 1522 1520 1519 1518 1516 1515 1514 1513 1511 1510 1508 1505 1503 1501 1499 1497 1495 1494 1492 1491 1489 1488 1487 1485 1484 1482 1481 1479 1477 1476 1474 1472 1471 1470 1468 1466 1464 1462 1460 1459 1458 1457 1456 1455 1454 1453 1452 1452 1451 1451 1450 1450 1450 1449 1447 1446 1445 1444
1513 1514 1515 1517 1518 1519 1519 1519 1519 1519 1519 1520 1520 1521 1521 1520 1520 1519 1518 1516 1515 1513 1513 1512 1510 1508 1506 1504 1501 1499 1497 1495 1493 1492 1490 1489 1488 1487 1485 1483 1482 1480 1478 1476 1474 1473 1472 1470 1469 1468 1467 1465 1463 1461 1459 1457 1455 1454 1453 1452 1451 1450 1450 1450 1450 1450 1449 1449 1448 1447 1446 1445 1444 1443
1511 1512 1514 1516 1516 1517 1517 1517 1517 1518 1518 1519 1519 1519 1519 1519 1518 1517 1516 1515 1514 1512 1511 1511 1509 1507 1505 1503 1500 1498 1496 1494 1492 1490 1489 1487 1486 1485 1483 1482 1480 1478 1476 1474 1472 1471 1470 1468 1467 1466 1465 1463 1461 1459 1457 1455 1453 1452 1451 1450 1449 1448 1448 1448 1448 1448 1448 1448 1447 1446 1445 1444 1443 1442
1510 1511 1513 1514 1515 1515 1515 1516 1516 1517 1517 1518 1518 1518 1518 1517 1517 1516 1515 1514 1512 1510 1510 1509 1508 1506 1503 1501 1499 1497 1495 1493 1491 1489 1487 1486 1484 1483 1481 1479 1478 1476 1474 1473 1471 1469 1468 1467 1465 1463 1462 1460 1459 1457 1456 1454 1452 1450 1450 1449 1448 1447 1447 1447 1447 1446 1446 1446 1445 1445 1444 1443 1442 1441
1509 1510 1511 1512 1513 1513 1514 1515 1516 1516 1516 1516 1517 1516 1516 1516 1515 1514 1513 1512 1511 1510 1509 1509 1507 1505 1503 1501 1498 1496 1494 1491 1490 1488 1486 1484 1482 1481 1479 1478 1476 1475 1473 1471 1469 1467 1466 1464 1462 1460 1459 1458 1457 1455 1454 1453 1451 1450 1449 1448 1447 1446 1446 1446 1445 1445 1444 1444 1444 1443 1443 1442 1441 1440
1508 1509 1509 1510 1511 1512 1514 1515 1515 1515 1515 1515 1515 1515 1515 1515 1514 1514 1513 1512 1511 1510 1509 1507 1506 1504 1502 1500 1498 1495 1493 1490 1488 1486 1484 1483 1481 1479 1478 1476 1474 1473 1471 1469 1467 1465 1463 1462 1460 1458 1457 1456 1455 1454 1452 1452 1451 1449 1449 1448 1447 1446 1445 1445 1444 1443 1443 1442 1442 1442 1441 1441 1441 1440
1506 1507 1508 1509 1510 1511 1512 1514 1514 1514 1514 1514 1514 1514 1514 1514 1513 1513 1512 1511 1510 1509 1507 1506 1505 1503 1501 1498 1496 1494 1491 1489 1487 1484 1483 1481 1480 1478 1476 1474 1472 1470 1469 1467 1465 1463 1461 1460 1458 1456 1455 1454 1453 1452 1451 1451 1450 1449 1448 1447 1447 1446 1445 1444 1443 1442 1441 1441 1440 1440 1440 1440 1440 1439
1505 1506 1507 1508 1509 1510 1511 1512 1512 1512 1513 1513 1513 1513 1513 1512 1512 1512 1511 1510 1509 1507 1506 1505 1503 1501 1499 1497 1494 1492 1489 1487 1485 1483 1482 1480 1479 1477 1475 1473 1471 1469 1467 1465 1463 1461 1459 1458 1456 1455 1454 1453 1452 1451 1451 1450 1449 1448 1447 1446 1446 1445 1444 1443 1442 1441 1441 1440 1439 1439 1439 1439 1439 1439